Showing default

OV1-2, 1613

Orbit data source: Space-Track

OV1-2, 1613 is a payload satellite owned by USAF OAR (US) in LEO that was launched on Tue, 05 Oct 1965 UTC via an ATLAS D launch vehicle from the Air Force Western Test Range (AFWTR). Payload-class satellites include a variety of spacecraft equipped with specific instruments for various scientific and technological missions. These include communications satellites like Starlink; space stations such as the ISS; scientific satellites like the Hubble; Earth observation satellites from companies like Planet Labs, Umbra, and HawkEye 360; GPS; miniature CubeSats for education and research; and military/defense satellites.

Loading next visibility...
Identifier
1613, 1965-078A
Orbit
LEO
Country
Flag of USUS
Related business
Manufacturer
GD/Convair
Mission
Spacecraft
Bus & Motor
OV1, Unknown motor
Mass
86 kg wet, 86 kg dry
Launch date (UTC)
1965-10-05 (61 years ago)
Launch vehicle
ATLAS D
Launch site
Air Force Western Test Range (AFWTR)
Object type
Payload
Rocket body
Debris
Shape & HBR
DOMED CYL, 1.1 m
Radar Cross Section
Medium (>0.1 m² and <1 m²)

Expand to show TLE details & history
Last TLE update: 1 day ago

TLE from 1 day ago
0 OV1-2
1 01613U 65078A   26265.03996866  .00004770  00000-0  44713-3 0  9995
2 01613 144.2215  85.4350 1125135 242.4560 105.7342 13.02087047727345
Epoch: 2026-09-22T00:57Z
TLE epoch observation values (Epoch: 2026-09-22T00:57:33.292Z)
Latitude
0.00004°
Longitude
70.13506°
Altitude
1,570.834 km
Speed
6.935 km/s
True Right ascension
05h 41m 44s
True Declination
0° 00' 00"
Sunlit
Object was in daylight at epoch
Visualization orbit readout
Latitude
Unknown
Longitude
Unknown
Altitude
Unknown
Speed
Unknown
Apparent Right ascension
Unknown
Apparent Declination
Unknown
Sunlit
N/A
Visualization observer readout
Local Sidereal Time
20:11:50
Azimuth
Unknown
Elevation
Unknown
Doppler factor
Unknown
Orbital elements
Apogee altitude
2,115.828 km
Perigee altitude
397.763 km
Semi-major axis
7,634.933 km
Eccentricity
0.11251
Inclination
144.2215°
RAAN
85.435°
Arg. of periapsis
242.456°
True anomaly
117.60267°
Mean anomaly
105.7342°
Eccentric anomaly
111.72294°
Mean motion
3.25338 °/min
Orbital period
110.65 mins
BSTAR
0.00044713
Loading maneuver chart data...
Computing Atmospheric mass density...
Loading historical data...
Loading historical data...
Loading historical data...
Loading historical data...
Loading historical data...
Loading historical data...
Loading historical data...
Other satellites on launch #78 in the year 1965 (1965-10-05 UTC)

Documentation

Showing up to 5 results
|